Location: Evergreen Manor
(41.4083°N, 81.4939°W)
Time: 14:47:50
(UTC+00:00)

FALCON 9 R/B - Pass Details

Date: 11 December 2019
Orbit: 286 x 10160 km, 34.5° (Epoch: 28 January)

Event Time Altitude Azimuth Distance (km) Brightness Sun altitude
Exits shadow 09:18:47 46° 156° (SSE) 1,636 3.6 -37.2°
Drops below altitude 10° 09:33:35 10° 90° (E) 6,656 7.6 -34.4°
Sets 09:42:58 0° 87° (E) 9,546 8.7 -32.6°
